TimeCST,TemperatureF,Dew PointF,Humidity,Sea Level PressureIn,VisibilityMPH,Wind Direction,Wind SpeedMPH,Gust SpeedMPH,PrecipitationIn,Events,Conditions,WindDirDegrees,DateUTC
12:56 AM,39.0,21.9,50,30.18,10.0,East,5.8,-,N/A,,Overcast,80,2013-02-21 06:56:00
1:56 AM,37.9,23.0,55,30.16,10.0,ENE,3.5,-,N/A,,Overcast,60,2013-02-21 07:56:00
2:56 AM,36.0,21.9,57,30.15,10.0,NNE,3.5,-,N/A,,Scattered Clouds,20,2013-02-21 08:56:00
3:56 AM,34.0,23.0,64,30.14,10.0,Calm,Calm,-,N/A,,Clear,0,2013-02-21 09:56:00
4:56 AM,33.1,24.1,70,30.12,10.0,Calm,Calm,-,N/A,,Clear,0,2013-02-21 10:56:00
5:56 AM,32.0,25.0,75,30.14,10.0,Calm,Calm,-,N/A,,Mostly Cloudy,0,2013-02-21 11:56:00
6:56 AM,33.1,27.0,78,30.15,10.0,ESE,3.5,-,N/A,,Mostly Cloudy,110,2013-02-21 12:56:00
7:56 AM,37.9,26.1,62,30.17,10.0,East,5.8,-,N/A,,Mostly Cloudy,100,2013-02-21 13:56:00
8:56 AM,43.0,27.0,53,30.15,10.0,ENE,6.9,-,N/A,,Overcast,70,2013-02-21 14:56:00
9:56 AM,46.0,25.0,44,30.11,10.0,ESE,8.1,-,N/A,,Overcast,110,2013-02-21 15:56:00
10:56 AM,48.9,26.1,41,30.07,10.0,East,11.5,-,N/A,,Overcast,100,2013-02-21 16:56:00
11:56 AM,51.1,27.0,39,30.02,10.0,SE,10.4,-,0.00,Rain,Light Rain,130,2013-02-21 17:56:00
12:15 PM,51.8,28.4,41,29.96,10.0,ESE,8.1,-,0.00,,Overcast,120,2013-02-21 18:15:00
12:56 PM,54.0,30.0,40,29.96,10.0,SE,12.7,-,0.00,,Overcast,130,2013-02-21 18:56:00
1:56 PM,57.0,30.9,37,29.91,10.0,SE,13.8,-,N/A,,Overcast,130,2013-02-21 19:56:00
2:56 PM,57.9,35.1,42,29.89,10.0,SE,9.2,17.3,N/A,,Overcast,140,2013-02-21 20:56:00
3:56 PM,59.0,39.0,48,29.87,10.0,SE,8.1,-,N/A,,Overcast,140,2013-02-21 21:56:00
4:34 PM,59.0,44.6,59,29.85,10.0,South,8.1,-,0.00,Rain,Light Rain,170,2013-02-21 22:34:00
4:56 PM,57.0,46.9,69,29.89,10.0,SSE,5.8,17.3,0.01,Rain,Light Rain,160,2013-02-21 22:56:00
5:22 PM,55.4,48.2,77,29.85,7.0,SE,3.5,-,0.03,Rain-Thunderstorm,Thunderstorms and Rain,130,2013-02-21 23:22:00
5:56 PM,54.0,50.0,86,29.87,10.0,East,6.9,-,0.04,Rain-Thunderstorm,Light Thunderstorms and Rain,100,2013-02-21 23:56:00
6:56 PM,55.9,51.1,84,29.85,10.0,ESE,9.2,-,0.01,Rain-Thunderstorm,Light Thunderstorms and Rain,120,2013-02-22 00:56:00
7:54 PM,57.2,51.8,82,29.86,2.5,Variable,4.6,-,0.05,,Haze,0,2013-02-22 01:54:00
7:56 PM,57.9,55.0,90,29.89,1.8,Variable,3.5,-,0.07,Rain-Thunderstorm,Heavy Thunderstorms and Rain,0,2013-02-22 01:56:00
8:10 PM,55.4,53.6,94,29.85,3.0,Variable,5.8,-,0.07,Rain-Thunderstorm,Heavy Thunderstorms and Rain,0,2013-02-22 02:10:00
8:39 PM,57.2,55.4,94,29.83,6.0,Variable,5.8,25.3,0.08,Rain-Thunderstorm,Light Thunderstorms and Rain,0,2013-02-22 02:39:00
8:53 PM,57.2,55.4,94,29.83,6.0,ESE,9.2,-,0.09,Rain-Thunderstorm,Light Thunderstorms and Rain,110,2013-02-22 02:53:00
8:56 PM,57.9,55.9,93,29.87,6.0,ESE,6.9,-,0.10,Rain-Thunderstorm,Light Thunderstorms and Rain,120,2013-02-22 02:56:00
9:22 PM,60.8,57.2,88,29.84,6.0,SSE,4.6,-,0.00,Rain-Thunderstorm,Light Thunderstorms and Rain,150,2013-02-22 03:22:00
9:56 PM,55.9,54.0,93,29.88,2.5,NNW,9.2,17.3,0.12,Rain-Thunderstorm,Heavy Thunderstorms and Rain,330,2013-02-22 03:56:00
10:04 PM,57.2,53.6,88,29.86,1.8,NNW,11.5,21.9,0.08,Rain-Thunderstorm,Heavy Thunderstorms and Rain,330,2013-02-22 04:04:00
10:09 PM,57.2,55.4,94,29.87,3.0,NNW,10.4,21.9,0.10,Rain-Thunderstorm,Thunderstorms and Rain,340,2013-02-22 04:09:00
10:12 PM,57.2,55.4,94,29.87,2.5,North,10.4,-,0.14,Rain-Thunderstorm,Heavy Thunderstorms and Rain,360,2013-02-22 04:12:00
10:26 PM,57.2,55.4,94,29.85,1.0,SE,6.9,-,0.45,Rain-Thunderstorm,Heavy Thunderstorms and Rain,130,2013-02-22 04:26:00
10:45 PM,57.2,55.4,94,29.88,2.0,Calm,Calm,-,0.73,Rain-Thunderstorm,Light Thunderstorms and Rain,0,2013-02-22 04:45:00
10:49 PM,57.2,55.4,94,29.88,1.8,Calm,Calm,-,0.82,Rain,Heavy Rain,0,2013-02-22 04:49:00
10:56 PM,57.0,55.9,96,29.91,1.2,East,4.6,-,0.90,Rain,Heavy Rain,100,2013-02-22 04:56:00
11:21 PM,57.2,55.4,94,29.89,2.5,Calm,Calm,-,0.10,Rain,Light Rain,0,2013-02-22 05:21:00
11:29 PM,57.2,55.4,94,29.88,1.5,Calm,Calm,-,0.14,Rain,Rain,0,2013-02-22 05:29:00
11:34 PM,57.2,55.4,94,29.88,1.0,Calm,Calm,-,0.16,Rain,Rain,0,2013-02-22 05:34:00
11:46 PM,57.2,55.4,94,29.89,2.0,Calm,Calm,-,0.17,Rain,Light Rain,0,2013-02-22 05:46:00
11:56 PM,57.0,55.0,93,29.91,2.5,East,4.6,-,0.17,Rain,Light Rain,100,2013-02-22 05:56:00